Snowfall_Accumulation
0.0 0.0 0.0 0.0 0.2 0.3 0.3 0.2 0.1 0.1 0.0 0.0 0.0 0.1 0.0 0.1 0.1 0.1 0.1 0.1 0.2 0.2
0.1 0.1 0.1 0.1 0.1 0.3 0.2 0.3 0.2 0.1 0.1 0.0 0.0 0.0 0.0 0.1 0.0 0.0 0.1 0.2 0.2 0.3
0.0 0.0 0.1 0.0 0.2 0.2 0.2 0.1 0.1 0.1 0.1 0.1 0.0 0.0 0.0 0.0 0.0 0.0 0.1 0.2 0.2 0.3
0.0 0.0 0.0 0.2 0.2 0.4 0.2 0.3 0.2 0.1 0.3 0.4 0.3 0.1 0.1 0.1 0.2 0.0 0.1 0.1 0.2 0.2
0.0 0.0 0.0 0.6 0.6 0.7 1.2 0.7 0.9 0.6 0.2 1.5 0.7 1.4 0.3 0.4 1.6 1.7 0.4 0.6 0.5 0.7
0.0 0.0 0.0 0.0 0.0 0.0 1.3 2.2 2.7 3.1 2.9 3.3 5.0 4.8 7.4 3.6 1.7 2.0 3.2 3.4 2.9 1.7
0.0 0.0 0.0 0.0 0.0 0.0 0.8 2.1 3.6 6.0 7.8 8.0 7.3 7.9 6.9 6.3 7.2 3.7 5.4 6.5 2.8 2.7
0.0 0.0 0.0 0.0 0.0 0.0 0.0 0.6 1.4 2.8 5.7 5.6 5.2 6.0 4.2 2.9 6.3 6.4 5.6 8.5 6.3 4.7
0.0 0.0 0.0 0.0 0.0 0.0 0.0 0.0 0.0 0.1 0.5 2.7 2.6 1.8 0.7 0.5 1.7 3.0 2.4 2.5 2.4 2.1
0.0 0.0 0.0 0.0 0.0 0.0 0.0 0.0 0.0 0.0 0.0 0.0 0.1 0.3 0.2 0.0 0.2 0.4 0.9 0.9 0.7 0.7
0.0 0.0 0.0 0.0 0.0 0.0 0.0 0.0 0.0 0.0 0.0 0.0 0.0 0.0 0.0 0.1 0.0 0.0 0.0 0.0 0.1 0.2
0.0 0.0 0.0 0.0 0.0 0.0 0.0 0.0 0.0 0.0 0.0 0.0 0.0 0.0 0.0 0.0 0.0 0.0 0.0 0.0 0.0 0.0
0.0 0.0 0.0 0.0 0.0 0.0 0.0 0.0 0.0 0.0 0.0 0.0 0.0 0.0 0.0 0.0 0.0 0.0 0.0 0.0 0.0 0.0
0.0 0.0 0.0 0.0 0.0 0.0 0.0 0.0 0.0 0.0 0.0 0.0 0.0 0.0 0.0 0.0 0.0 0.0 0.0 0.0 0.0 0.0